Weather in Ulyanovskiy

Kazakhstan     50°03′48″N   73°42′36″E
temp.,
°C
wind,
m/s
gust,
m/s
humid.,
%
clouds,
%
prec.,
mm/h
press.,
hPa
HPBL,
m
13 may, thu
thu1300:00+13wnw455171 0.0 102156
03:00+13w475098 0.0 1020134
06:00+13wnw51155100 0.0 1020369
09:00+13n7966100 0.0 1021683
12:00+15n783996 0.0 10211370
15:00+17n78347 0.0 10211956
18:00+17n7940100 0.0 10211926
21:00+13n4866100 0.0 1023439
14 may, fri
fri1400:00+10nw41190100 2.7 1023486
03:00+11nw4894100 3.5 1021468
06:00+11nne599098 3.9 1022600
09:00+11nne6878100 0.1 1025803
12:00+15ne78535 0.1 10251504
15:00+18nne78395 0.0 10251842
18:00+17nne67362 0.0 10261805
21:00+13nne35520 0.0 102864
15 may, sat
sat1500:00+11ne335747 0.0 102822
03:00+9ene11615 0.0 102810
06:00+9ne00635 0.0 102810
09:00+15nnw12445 0.0 1028458
12:00+18n223591 0.0 10271251
15:00+21nnw23310 0.0 10251682
18:00+22n34315 0.0 10241766
21:00+16ne11495 0.0 102411
16 may, sun
sun1600:00+15sw224723 0.0 102311
03:00+14w33515 0.0 102212
06:00+13w22569 0.0 102213
09:00+19w45435 0.0 1022450
12:00+23wnw34394 0.0 10211219
15:00+25nnw35324 0.0 10202646
18:00+26nne242725 0.0 10182809
21:00+20ne224717 0.0 101921
17 may, mon
mon1700:00+18ene2251100 0.1 102021
03:00+16w116089 0.1 101911
06:00+16nne11665 0.1 102011
09:00+21ne12485 0.0 1020351
12:00+25nne23341 0.0 10182489
15:00+27nne332937 0.0 10172901
18:00+27n33295 0.0 10162700
21:00+21nne22425 0.0 101511